| time (UTC) | temp F | wind direction | speed MPH | gust MPH | rain 1hr in | rain 24hr in | rain mn in | humidity % | barometer mb |
| 20260505021521 | 0 | 323 | 3.0 | 7.0 | 0.00 | 0.00 | 0.00 | 1012.7 | |
| 20260505020018 | 0 | 323 | 4.0 | 8.0 | 0.00 | 0.00 | 0.00 | 1012.8 | |
| 20260505014513 | 0 | 327 | 4.0 | 9.0 | 0.00 | 0.00 | 0.00 | 1013.0 | |
| 20260505013009 | 0 | 319 | 3.0 | 6.0 | 0.00 | 0.00 | 0.00 | 1013.1 | |
| 20260505011505 | 0 | 333 | 3.0 | 10.0 | 0.00 | 0.00 | 0.00 | 1013.1 | |
| 20260505004607 | 0 | 323 | 4.0 | 7.0 | 0.00 | 0.00 | 0.00 | 1013.2 | |
| 20260505003057 | 0 | 325 | 4.0 | 8.0 | 0.00 | 0.00 | 0.00 | 1013.2 | |
| 20260505001605 | 0 | 322 | 4.0 | 9.0 | 0.00 | 0.00 | 0.00 | 1013.1 | |
| 20260505000106 | 0 | 329 | 5.0 | 9.0 | 0.00 | 0.00 | 0.00 | 1013.2 | |
| 20260504234546 | 0 | 324 | 4.0 | 8.0 | 0.00 | 0.00 | 0.00 | 1013.2 | |
| 20260504233057 | 0 | 325 | 5.0 | 10.0 | 0.00 | 0.00 | 0.00 | 1013.2 | |
| 20260504231537 | 0 | 319 | 5.0 | 9.0 | 0.00 | 0.00 | 0.00 | 1013.2 | |
| 20260504230035 | 0 | 335 | 5.0 | 8.0 | 0.00 | 0.00 | 0.00 | 1013.2 | |
| 20260504224538 | 0 | 245 | 4.0 | 8.0 | 0.00 | 0.00 | 0.00 | 1013.4 | |
| 20260504223034 | 0 | 324 | 4.0 | 8.0 | 0.00 | 0.00 | 0.00 | 1013.5 | |
| 20260504221533 | 0 | 323 | 5.0 | 9.0 | 0.00 | 0.00 | 0.00 | 1013.5 | |
| 20260504220034 | 0 | 338 | 6.0 | 9.0 | 0.00 | 0.00 | 0.00 | 1013.5 | |
| 20260504214531 | 0 | 328 | 5.0 | 10.0 | 0.00 | 0.00 | 0.00 | 1013.5 | |
| 20260504213034 | 0 | 330 | 4.0 | 9.0 | 0.00 | 0.00 | 0.00 | 1013.5 | |
| 20260504211530 | 0 | 323 | 5.0 | 9.0 | 0.00 | 0.00 | 0.00 | 1013.5 | |
| 20260504210031 | 0 | 323 | 5.0 | 10.0 | 0.00 | 0.00 | 0.00 | 1013.6 | |
| 20260504204529 | 0 | 328 | 5.0 | 10.0 | 0.00 | 0.00 | 0.00 | 1013.6 | |
| 20260504203029 | 0 | 351 | 5.0 | 9.0 | 0.00 | 0.00 | 0.00 | 1013.6 | |
| 20260504201528 | 0 | 334 | 6.0 | 9.0 | 0.00 | 0.00 | 0.00 | 1013.6 | |
| 20260504200029 | 0 | 318 | 5.0 | 9.0 | 0.00 | 0.00 | 0.00 | 1013.6 | |
| 20260504194527 | 0 | 330 | 4.0 | 8.0 | 0.00 | 0.00 | 0.00 | 1013.7 | |
| 20260504193016 | 0 | 321 | 4.0 | 9.0 | 0.00 | 0.00 | 0.00 | 1013.7 | |
| 20260504191511 | 0 | 335 | 3.0 | 9.0 | 0.00 | 0.00 | 0.00 | 1013.9 | |
| 20260504190006 | 0 | 326 | 4.0 | 8.0 | 0.00 | 0.00 | 0.00 | 1013.7 | |
| 20260504184502 | 0 | 323 | 4.0 | 8.0 | 0.00 | 0.00 | 0.00 | 1013.8 | |
| 20260504183058 | 0 | 328 | 4.0 | 8.0 | 0.00 | 0.00 | 0.00 | 1013.6 | |
| 20260504181558 | 0 | 333 | 4.0 | 8.0 | 0.00 | 0.00 | 0.00 | 1013.5 | |
| 20260504180048 | 0 | 300 | 4.0 | 8.0 | 0.00 | 0.00 | 0.00 | 1013.5 | |
| 20260504174544 | 0 | 311 | 5.0 | 9.0 | 0.00 | 0.00 | 0.00 | 1013.4 | |
| 20260504173039 | 0 | 329 | 5.0 | 8.0 | 0.00 | 0.00 | 0.00 | 1013.3 | |
| 20260504171545 | 0 | 316 | 4.0 | 9.0 | 0.00 | 0.00 | 0.00 | 1013.4 | |
| 20260504081555 | 0 | 316 | 3.0 | 7.0 | 0.00 | 0.00 | 0.00 | 1010.9 | |
| 20260504050019 | 0 | 7 | 2.0 | 7.0 | 0.00 | 0.00 | 0.00 | 1009.1 | |
| 20260504044520 | 0 | 325 | 4.0 | 8.0 | 0.00 | 0.00 | 0.00 | 1008.7 | |
| 20260504043010 | 0 | 207 | 0.0 | 2.0 | 0.00 | 0.00 | 0.00 | 1007.9 | |
| 20260504041507 | 0 | 207 | 0.0 | 2.0 | 0.00 | 0.00 | 0.00 | 1007.7 | |
| 20260504040001 | 0 | 207 | 0.0 | 1.0 | 0.00 | 0.00 | 0.00 | 1007.6 | |
| 20260504034607 | 0 | 207 | 0.0 | 1.0 | 0.00 | 0.00 | 0.00 | 1007.5 | |
| 20260504033054 | 0 | 207 | 0.0 | 2.0 | 0.00 | 0.00 | 0.00 | 1007.4 | |
| 20260504031548 | 0 | 207 | 0.0 | 3.0 | 0.00 | 0.00 | 0.00 | 1007.2 | |
| 20260504030043 | 0 | 207 | 0.0 | 3.0 | 0.00 | 0.00 | 0.00 | 1007.2 | |
| 20260504024539 | 0 | 207 | 0.0 | 2.0 | 0.00 | 0.00 | 0.00 | 1007.1 | |
| 20260504023034 | 0 | 207 | 0.0 | 2.0 | 0.00 | 0.00 | 0.00 | 1007.1 |